Time,TemperatureF,DewpointF,PressureIn,WindDirection,WindDirectionDegrees,WindSpeedMPH,WindSpeedGustMPH,Humidity,HourlyPrecipIn,Conditions,Clouds,dailyrainin,SolarRadiationWatts/m^2,SoftwareType,DateUTC
2013-06-03 00:02:00,35.0,34.0,-100.00,ENE,77,0.0,0.0,96,0.00,,,0.17,0.000000,,2013-06-03 05:02:00,
2013-06-03 00:12:00,35.0,34.0,-100.00,ENE,77,0.0,0.0,96,0.00,,,0.17,0.000000,,2013-06-03 05:12:00,
2013-06-03 00:32:00,34.0,33.0,-100.00,NNE,26,1.0,2.0,97,0.00,,,0.00,0.000000,,2013-06-03 05:32:00,
2013-06-03 00:43:00,34.0,33.0,-100.00,NNE,26,1.0,2.0,97,0.00,,,0.00,0.000000,,2013-06-03 05:43:00,
2013-06-03 00:52:00,34.0,33.0,-100.00,NNE,26,1.0,2.0,97,0.00,,,0.00,0.000000,,2013-06-03 05:52:00,
2013-06-03 01:02:00,34.0,33.0,-100.00,NNE,26,1.0,2.0,97,0.00,,,0.00,0.000000,,2013-06-03 06:02:00,
2013-06-03 01:12:00,34.0,33.0,-100.00,NNE,26,1.0,2.0,97,0.00,,,0.00,0.000000,,2013-06-03 06:12:00,
2013-06-03 01:32:00,33.0,32.0,-100.00,NNW,328,0.0,2.0,97,0.00,,,0.00,0.000000,,2013-06-03 06:32:00,
2013-06-03 01:42:00,33.0,32.0,-100.00,NNW,328,0.0,2.0,97,0.00,,,0.00,0.000000,,2013-06-03 06:42:00,
2013-06-03 01:52:00,33.0,32.0,-100.00,NNW,328,0.0,2.0,97,0.00,,,0.00,0.000000,,2013-06-03 06:52:00,
2013-06-03 02:02:00,33.0,32.0,-100.00,NNW,328,0.0,2.0,97,0.00,,,0.00,0.000000,,2013-06-03 07:02:00,
2013-06-03 02:12:00,33.0,32.0,-100.00,NNW,328,0.0,2.0,97,0.00,,,0.00,0.000000,,2013-06-03 07:12:00,
2013-06-03 02:32:00,31.0,30.0,-100.00,NW,319,0.0,0.0,97,0.00,,,0.00,0.000000,,2013-06-03 07:32:00,
2013-06-03 02:42:00,31.0,30.0,-100.00,NW,319,0.0,0.0,97,0.00,,,0.00,0.000000,,2013-06-03 07:42:00,
2013-06-03 02:52:00,31.0,30.0,-100.00,NW,319,0.0,0.0,97,0.00,,,0.00,0.000000,,2013-06-03 07:52:00,
2013-06-03 03:02:00,31.0,30.0,-100.00,NW,319,0.0,0.0,97,0.00,,,0.00,0.000000,,2013-06-03 08:02:00,
2013-06-03 03:12:00,31.0,30.0,-100.00,NW,319,0.0,0.0,97,0.00,,,0.00,0.000000,,2013-06-03 08:12:00,
2013-06-03 03:32:00,30.0,29.0,-100.00,West,276,0.0,0.0,97,0.00,,,0.00,0.000000,,2013-06-03 08:32:00,
2013-06-03 03:42:00,30.0,29.0,-100.00,West,276,0.0,0.0,97,0.00,,,0.00,0.000000,,2013-06-03 08:42:00,
2013-06-03 03:52:00,30.0,29.0,-100.00,West,276,0.0,0.0,97,0.00,,,0.00,0.000000,,2013-06-03 08:52:00,
2013-06-03 04:02:00,30.0,29.0,-100.00,West,276,0.0,0.0,97,0.00,,,0.00,0.000000,,2013-06-03 09:02:00,
2013-06-03 04:12:00,30.0,29.0,-100.00,West,276,0.0,0.0,97,0.00,,,0.00,0.000000,,2013-06-03 09:12:00,
2013-06-03 04:33:00,30.0,29.0,-100.00,NW,319,0.0,0.0,98,0.00,,,0.00,0.000000,,2013-06-03 09:33:00,
2013-06-03 04:43:00,30.0,29.0,-100.00,NW,319,0.0,0.0,98,0.00,,,0.00,0.000000,,2013-06-03 09:43:00,
2013-06-03 04:53:00,30.0,29.0,-100.00,NW,319,0.0,0.0,98,0.00,,,0.00,0.000000,,2013-06-03 09:53:00,
2013-06-03 05:03:00,30.0,29.0,-100.00,NW,319,0.0,0.0,98,0.00,,,0.00,0.000000,,2013-06-03 10:03:00,
2013-06-03 05:12:00,30.0,29.0,-100.00,NW,319,0.0,0.0,98,0.00,,,0.00,0.000000,,2013-06-03 10:12:00,
2013-06-03 05:33:00,30.0,29.0,-100.00,WNW,282,0.0,0.0,98,0.00,,,0.00,2.000000,,2013-06-03 10:33:00,
2013-06-03 05:42:00,30.0,29.0,-100.00,WNW,282,0.0,0.0,98,0.00,,,0.00,2.000000,,2013-06-03 10:42:00,
2013-06-03 05:52:00,30.0,29.0,-100.00,WNW,282,0.0,0.0,98,0.00,,,0.00,2.000000,,2013-06-03 10:52:00,
2013-06-03 06:02:00,30.0,29.0,-100.00,WNW,282,0.0,0.0,98,0.00,,,0.00,2.000000,,2013-06-03 11:02:00,
2013-06-03 06:12:00,30.0,29.0,-100.00,WNW,282,0.0,0.0,98,0.00,,,0.00,2.000000,,2013-06-03 11:12:00,
2013-06-03 06:32:00,32.0,31.0,-100.00,WNW,299,0.0,0.0,97,0.00,,,0.00,44.000000,,2013-06-03 11:32:00,
2013-06-03 06:42:00,32.0,31.0,-100.00,WNW,299,0.0,0.0,97,0.00,,,0.00,44.000000,,2013-06-03 11:42:00,
2013-06-03 06:52:00,32.0,31.0,-100.00,WNW,299,0.0,0.0,97,0.00,,,0.00,44.000000,,2013-06-03 11:52:00,
2013-06-03 07:02:00,32.0,31.0,-100.00,WNW,299,0.0,0.0,97,0.00,,,0.00,44.000000,,2013-06-03 12:02:00,
2013-06-03 07:12:00,32.0,31.0,-100.00,WNW,299,0.0,0.0,97,0.00,,,0.00,44.000000,,2013-06-03 12:12:00,
2013-06-03 07:32:00,45.0,43.0,-100.00,SSW,201,1.0,3.0,93,0.00,,,0.00,244.000000,,2013-06-03 12:32:00,
2013-06-03 07:42:00,45.0,43.0,-100.00,SSW,201,1.0,3.0,93,0.00,,,0.00,244.000000,,2013-06-03 12:42:00,
2013-06-03 07:52:00,45.0,43.0,-100.00,SSW,201,1.0,3.0,93,0.00,,,0.00,244.000000,,2013-06-03 12:52:00,
2013-06-03 08:02:00,45.0,43.0,-100.00,SSW,201,1.0,3.0,93,0.00,,,0.00,244.000000,,2013-06-03 13:02:00,
2013-06-03 08:12:00,45.0,43.0,-100.00,SSW,201,1.0,3.0,93,0.00,,,0.00,244.000000,,2013-06-03 13:12:00,
2013-06-03 08:33:00,51.0,37.0,-100.00,NW,304,4.0,8.0,59,0.00,,,0.00,409.000000,,2013-06-03 13:33:00,
2013-06-03 08:43:00,51.0,37.0,-100.00,NW,304,4.0,8.0,59,0.00,,,0.00,409.000000,,2013-06-03 13:43:00,
2013-06-03 08:53:00,51.0,37.0,-100.00,NW,304,4.0,8.0,59,0.00,,,0.00,409.000000,,2013-06-03 13:53:00,
2013-06-03 09:02:00,51.0,37.0,-100.00,NW,304,4.0,8.0,59,0.00,,,0.00,409.000000,,2013-06-03 14:02:00,
2013-06-03 09:12:00,51.0,37.0,-100.00,NW,304,4.0,8.0,59,0.00,,,0.00,409.000000,,2013-06-03 14:12:00,
2013-06-03 09:33:00,55.0,36.0,-100.00,WNW,290,5.0,9.0,49,0.00,,,0.00,594.000000,,2013-06-03 14:33:00,
2013-06-03 09:42:00,55.0,36.0,-100.00,WNW,290,5.0,9.0,49,0.00,,,0.00,594.000000,,2013-06-03 14:42:00,
2013-06-03 09:52:00,55.0,36.0,-100.00,WNW,290,5.0,9.0,49,0.00,,,0.00,594.000000,,2013-06-03 14:52:00,
2013-06-03 10:02:00,55.0,36.0,-100.00,WNW,290,5.0,9.0,49,0.00,,,0.00,594.000000,,2013-06-03 15:02:00,
2013-06-03 10:12:00,55.0,36.0,-100.00,WNW,290,5.0,9.0,49,0.00,,,0.00,594.000000,,2013-06-03 15:12:00,
2013-06-03 10:13:00,58.0,36.0,-100.00,WNW,288,6.0,14.0,43,0.00,,,0.00,768.000000,,2013-06-03 15:13:00,
2013-06-03 10:33:00,58.0,36.0,-100.00,WNW,288,6.0,14.0,43,0.00,,,0.00,768.000000,,2013-06-03 15:33:00,
2013-06-03 10:43:00,58.0,36.0,-100.00,WNW,288,6.0,14.0,43,0.00,,,0.00,768.000000,,2013-06-03 15:43:00,
2013-06-03 10:53:00,58.0,36.0,-100.00,WNW,288,6.0,14.0,43,0.00,,,0.00,768.000000,,2013-06-03 15:53:00,
2013-06-03 11:03:00,58.0,36.0,-100.00,WNW,288,6.0,14.0,43,0.00,,,0.00,768.000000,,2013-06-03 16:03:00,
2013-06-03 11:33:00,60.0,36.0,-100.00,WNW,294,7.0,14.0,40,0.00,,,0.00,900.000000,,2013-06-03 16:33:00,
2013-06-03 11:42:00,60.0,36.0,-100.00,WNW,294,7.0,14.0,40,0.00,,,0.00,900.000000,,2013-06-03 16:42:00,
2013-06-03 11:53:00,60.0,36.0,-100.00,WNW,294,7.0,14.0,40,0.00,,,0.00,900.000000,,2013-06-03 16:53:00,
2013-06-03 12:02:00,60.0,36.0,-100.00,WNW,294,7.0,14.0,40,0.00,,,0.00,900.000000,,2013-06-03 17:02:00,
2013-06-03 12:12:00,60.0,36.0,-100.00,WNW,294,7.0,14.0,40,0.00,,,0.00,900.000000,,2013-06-03 17:12:00,
2013-06-03 12:33:00,62.0,35.0,-100.00,WNW,291,6.0,15.0,37,0.00,,,0.00,990.000000,,2013-06-03 17:33:00,
2013-06-03 12:42:00,62.0,35.0,-100.00,WNW,291,6.0,15.0,37,0.00,,,0.00,990.000000,,2013-06-03 17:42:00,
2013-06-03 12:52:00,62.0,35.0,-100.00,WNW,291,6.0,15.0,37,0.00,,,0.00,990.000000,,2013-06-03 17:52:00,
2013-06-03 13:02:00,62.0,35.0,-100.00,WNW,291,6.0,15.0,37,0.00,,,0.00,990.000000,,2013-06-03 18:02:00,
2013-06-03 13:12:00,62.0,35.0,-100.00,WNW,291,6.0,15.0,37,0.00,,,0.00,990.000000,,2013-06-03 18:12:00,
2013-06-03 13:32:00,63.0,35.0,-100.00,NW,304,8.0,32.0,35,0.00,,,0.00,1028.000000,,2013-06-03 18:32:00,
2013-06-03 13:43:00,63.0,35.0,-100.00,NW,304,8.0,32.0,35,0.00,,,0.00,1028.000000,,2013-06-03 18:43:00,
2013-06-03 13:53:00,63.0,35.0,-100.00,NW,304,8.0,32.0,35,0.00,,,0.00,1028.000000,,2013-06-03 18:53:00,
2013-06-03 14:03:00,63.0,35.0,-100.00,NW,304,8.0,32.0,35,0.00,,,0.00,1028.000000,,2013-06-03 19:03:00,
2013-06-03 14:12:00,63.0,35.0,-100.00,NW,304,8.0,32.0,35,0.00,,,0.00,1028.000000,,2013-06-03 19:12:00,
2013-06-03 14:33:00,64.0,34.0,-100.00,NW,313,7.0,18.0,32,0.00,,,0.00,997.000000,,2013-06-03 19:33:00,
2013-06-03 14:42:00,64.0,34.0,-100.00,NW,313,7.0,18.0,32,0.00,,,0.00,997.000000,,2013-06-03 19:42:00,
2013-06-03 14:53:00,64.0,34.0,-100.00,NW,313,7.0,18.0,32,0.00,,,0.00,997.000000,,2013-06-03 19:53:00,
2013-06-03 15:02:00,64.0,34.0,-100.00,NW,313,7.0,18.0,32,0.00,,,0.00,997.000000,,2013-06-03 20:02:00,
2013-06-03 15:12:00,64.0,34.0,-100.00,NW,313,7.0,18.0,32,0.00,,,0.00,997.000000,,2013-06-03 20:12:00,
2013-06-03 15:33:00,66.0,30.0,-100.00,NW,320,6.0,18.0,26,0.00,,,0.00,929.000000,,2013-06-03 20:33:00,
2013-06-03 15:43:00,66.0,30.0,-100.00,NW,320,6.0,18.0,26,0.00,,,0.00,929.000000,,2013-06-03 20:43:00,
2013-06-03 15:52:00,66.0,30.0,-100.00,NW,320,6.0,18.0,26,0.00,,,0.00,929.000000,,2013-06-03 20:52:00,
2013-06-03 16:02:00,66.0,30.0,-100.00,NW,320,6.0,18.0,26,0.00,,,0.00,929.000000,,2013-06-03 21:02:00,
2013-06-03 16:12:00,66.0,30.0,-100.00,NW,320,6.0,18.0,26,0.00,,,0.00,929.000000,,2013-06-03 21:12:00,
2013-06-03 16:33:00,64.0,32.0,-100.00,NNW,332,4.0,15.0,30,0.00,,,0.00,666.000000,,2013-06-03 21:33:00,
2013-06-03 16:43:00,64.0,32.0,-100.00,NNW,332,4.0,15.0,30,0.00,,,0.00,666.000000,,2013-06-03 21:43:00,
2013-06-03 16:53:00,64.0,32.0,-100.00,NNW,332,4.0,15.0,30,0.00,,,0.00,666.000000,,2013-06-03 21:53:00,
2013-06-03 17:03:00,64.0,32.0,-100.00,NNW,332,4.0,15.0,30,0.00,,,0.00,666.000000,,2013-06-03 22:03:00,
2013-06-03 17:12:00,64.0,32.0,-100.00,NNW,332,4.0,15.0,30,0.00,,,0.00,666.000000,,2013-06-03 22:12:00,
2013-06-03 17:33:00,64.0,31.0,-100.00,NNW,331,5.0,12.0,29,0.00,,,0.00,509.000000,,2013-06-03 22:33:00,
2013-06-03 17:42:00,64.0,31.0,-100.00,NNW,331,5.0,12.0,29,0.00,,,0.00,509.000000,,2013-06-03 22:42:00,
2013-06-03 17:53:00,64.0,31.0,-100.00,NNW,331,5.0,12.0,29,0.00,,,0.00,509.000000,,2013-06-03 22:53:00,
2013-06-03 18:02:00,64.0,31.0,-100.00,NNW,331,5.0,12.0,29,0.00,,,0.00,509.000000,,2013-06-03 23:02:00,
2013-06-03 18:12:00,64.0,31.0,-100.00,NNW,331,5.0,12.0,29,0.00,,,0.00,509.000000,,2013-06-03 23:12:00,
2013-06-03 18:32:00,61.0,29.0,-100.00,NNW,330,5.0,12.0,30,0.00,,,0.00,379.000000,,2013-06-03 23:32:00,
2013-06-03 18:42:00,61.0,29.0,-100.00,NNW,330,5.0,12.0,30,0.00,,,0.00,379.000000,,2013-06-03 23:42:00,
2013-06-03 18:52:00,61.0,29.0,-100.00,NNW,330,5.0,12.0,30,0.00,,,0.00,379.000000,,2013-06-03 23:52:00,
2013-06-03 19:02:00,61.0,29.0,-100.00,NNW,330,5.0,12.0,30,0.00,,,0.00,379.000000,,2013-06-04 00:02:00,
2013-06-03 19:12:00,61.0,29.0,-100.00,NNW,330,5.0,12.0,30,0.00,,,0.00,379.000000,,2013-06-04 00:12:00,
2013-06-03 19:32:00,59.0,29.0,-100.00,North,352,3.0,9.0,32,0.00,,,-99.99,151.000000,,2013-06-04 00:32:00,
2013-06-03 19:42:00,59.0,29.0,-100.00,North,352,3.0,9.0,32,0.00,,,-99.99,151.000000,,2013-06-04 00:42:00,
2013-06-03 19:52:00,59.0,29.0,-100.00,North,352,3.0,9.0,32,0.00,,,-99.99,151.000000,,2013-06-04 00:52:00,
2013-06-03 20:02:00,59.0,29.0,-100.00,North,352,3.0,9.0,32,0.00,,,-99.99,151.000000,,2013-06-04 01:02:00,
2013-06-03 20:12:00,59.0,29.0,-100.00,North,352,3.0,9.0,32,0.00,,,-99.99,151.000000,,2013-06-04 01:12:00,
2013-06-03 20:32:00,54.0,33.0,-100.00,NNE,20,0.0,4.0,44,0.00,,,0.00,61.000000,,2013-06-04 01:32:00,
2013-06-03 20:42:00,54.0,33.0,-100.00,NNE,20,0.0,4.0,44,0.00,,,0.00,61.000000,,2013-06-04 01:42:00,
2013-06-03 20:53:00,54.0,33.0,-100.00,NNE,20,0.0,4.0,44,0.00,,,0.00,61.000000,,2013-06-04 01:53:00,
2013-06-03 21:02:00,54.0,33.0,-100.00,NNE,20,0.0,4.0,44,0.00,,,0.00,61.000000,,2013-06-04 02:02:00,
2013-06-03 21:12:00,54.0,33.0,-100.00,NNE,20,0.0,4.0,44,0.00,,,0.00,61.000000,,2013-06-04 02:12:00,
2013-06-03 21:32:00,46.0,36.0,-100.00,NW,318,0.0,2.0,67,0.00,,,0.00,5.000000,,2013-06-04 02:32:00,
2013-06-03 21:42:00,46.0,36.0,-100.00,NW,318,0.0,2.0,67,0.00,,,0.00,5.000000,,2013-06-04 02:42:00,
2013-06-03 21:52:00,46.0,36.0,-100.00,NW,318,0.0,2.0,67,0.00,,,0.00,5.000000,,2013-06-04 02:52:00,
2013-06-03 22:02:00,46.0,36.0,-100.00,NW,318,0.0,2.0,67,0.00,,,0.00,5.000000,,2013-06-04 03:02:00,
2013-06-03 22:12:00,46.0,36.0,-100.00,NW,318,0.0,2.0,67,0.00,,,0.00,5.000000,,2013-06-04 03:12:00,
2013-06-03 22:13:00,42.0,37.0,-100.00,NNE,14,0.0,3.0,81,0.00,,,0.00,0.000000,,2013-06-04 03:13:00,
2013-06-03 22:33:00,42.0,37.0,-100.00,NNE,14,0.0,3.0,81,0.00,,,0.00,0.000000,,2013-06-04 03:33:00,
2013-06-03 22:43:00,42.0,37.0,-100.00,NNE,14,0.0,3.0,81,0.00,,,0.00,0.000000,,2013-06-04 03:43:00,
2013-06-03 22:54:00,42.0,37.0,-100.00,NNE,14,0.0,3.0,81,0.00,,,0.00,0.000000,,2013-06-04 03:54:00,
2013-06-03 23:03:00,42.0,37.0,-100.00,NNE,14,0.0,3.0,81,0.00,,,0.00,0.000000,,2013-06-04 04:03:00,
2013-06-03 23:33:00,41.0,38.0,-100.00,North,356,0.0,0.0,90,0.00,,,0.00,0.000000,,2013-06-04 04:33:00,
2013-06-03 23:42:00,41.0,38.0,-100.00,North,356,0.0,0.0,90,0.00,,,0.00,0.000000,,2013-06-04 04:42:00,
2013-06-03 23:53:00,41.0,38.0,-100.00,North,356,0.0,0.0,90,0.00,,,0.00,0.000000,,2013-06-04 04:53:00,